Hayward, WI

12:56 PM CDT on August 22, 2017 (GMT -0500)
Sawyer County

Weather History for KHYR - January, 2013

Change the Weather History Date:

Thursday, January 17, 2013

  Actual Average Record
Temperature  
Mean Temperature 0 °F -  
Max Temperature 10 °F 20 °F 44 °F (2017)
Min Temperature -9 °F 2 °F -31 °F (2005)
Degree Days  
Heating Degree Days 64    
Moisture  
Dew Point -6 °F    
Average Humidity 68    
Maximum Humidity 79    
Minimum Humidity 53    
Precipitation  
Precipitation 0.00 in - - ()
Sea Level Pressure  
Sea Level Pressure 30.35 in    
Wind  
Wind Speed 3 mph (WSW)    
Max Wind Speed 7 mph    
Max Gust Speed -    
Visibility 8 miles    
Events Snow    
Averages and records for this station are not official NWS values.
T = Trace of Precipitation, MM = Missing Value Source: NWS Daily Summary

Daily Weather History Graph

Daily Weather History Graph

Search for Another Location

Airport or City:

Trip Planner

Search our weather history database for the weather conditions in past years. The results will help you decide how hot, cold, wet, or windy it might be!

Date:

Astronomy

Jan. 17, 2013 Rise Set
Actual Time 7:42 AM CST 4:50 PM CST
Civil Twilight 7:09 AM CST 5:23 PM CST
Nautical Twilight 6:32 AM CST 6:00 PM CST
Astronomical Twilight 5:56 AM CST 6:36 PM CST
Moon 10:25 AM CST (1/17) No Moon Set
Length of Visible Light 10h 14m
Length of Day
9h 07m
Waxing Crescent, 38% of the Moon is Illuminated
Jan 17
Waxing Crescent
Jan 18
First Quarter
Jan 26
Full
Feb 3
Last Quarter
Feb 10
New

Hourly Weather History & Observations

Time (CST) Temp. Windchill Dew Point Humidity Pressure Visibility Wind Dir Wind Speed Gust Speed Precip Events Conditions
12:53 AM 6.1 °F -4.3 °F -6.0 °F 58% 30.27 in 10.0 mi Variable 5.8 mph - N/A   Overcast
1:53 AM 3.9 °F - -9.9 °F 53% 30.29 in 10.0 mi Calm Calm - N/A   Mostly Cloudy
2:53 AM -0.0 °F - -9.9 °F 63% 30.31 in 10.0 mi Calm Calm - N/A   Scattered Clouds
3:53 AM 1.0 °F - -7.1 °F 69% 30.31 in 10.0 mi Calm Calm - N/A   Overcast
4:53 AM 1.0 °F - -8.0 °F 66% 30.32 in 10.0 mi Calm Calm - N/A   Mostly Cloudy
5:53 AM 1.0 °F - -8.0 °F 66% 30.35 in 10.0 mi Calm Calm - N/A   Overcast
6:53 AM 1.9 °F - -8.0 °F 63% 30.35 in 10.0 mi Calm Calm - N/A   Overcast
7:53 AM 1.9 °F -5.6 °F -7.1 °F 66% 30.37 in 10.0 mi Variable 3.5 mph - N/A   Overcast
8:53 AM 3.0 °F - -7.1 °F 63% 30.38 in 10.0 mi Calm Calm - N/A   Overcast
9:30 AM 3.2 °F -4.2 °F -5.8 °F 66% 30.30 in 2.0 mi Variable 3.5 mph - 0.00 in Snow Light Snow
9:41 AM 3.2 °F -6.2 °F -4.0 °F 72% 30.31 in 1.8 mi Variable 4.6 mph - 0.00 in Snow Light Snow
9:53 AM 3.9 °F -5.3 °F -4.0 °F 70% 30.42 in 1.8 mi Variable 4.6 mph - 0.00 in Snow Light Snow
10:09 AM 3.2 °F -9.1 °F -2.2 °F 78% 30.33 in 1.0 mi West 6.9 mph - 0.00 in Snow Light Snow
10:28 AM 5.0 °F -4.1 °F -2.2 °F 72% 30.33 in 1.2 mi Variable 4.6 mph - 0.00 in Snow Light Snow
11:05 AM 5.0 °F -5.6 °F -2.2 °F 72% 30.32 in 2.5 mi West 5.8 mph - 0.00 in Snow Light Snow
11:19 AM 6.8 °F -2.0 °F -2.2 °F 67% 30.32 in 2.0 mi Variable 4.6 mph - 0.00 in Snow Light Snow
11:53 AM 6.1 °F -2.8 °F -0.9 °F 73% 30.41 in 2.5 mi West 4.6 mph - 0.00 in Snow Light Snow
12:13 PM 6.8 °F -2.0 °F -0.4 °F 72% 30.30 in 3.0 mi WSW 4.6 mph - 0.00 in Snow Light Snow
12:53 PM 8.1 °F 1.4 °F -0.9 °F 67% 30.39 in 10.0 mi Variable 3.5 mph - 0.00 in   Overcast
1:53 PM 10.9 °F - -0.9 °F 59% 30.37 in 10.0 mi Calm Calm - N/A   Overcast
2:04 PM 10.4 °F 2.2 °F -2.2 °F 57% 30.27 in 10.0 mi Variable 4.6 mph - N/A   Overcast
2:53 PM 10.9 °F 1.4 °F -0.9 °F 59% 30.38 in 10.0 mi Variable 5.8 mph - N/A   Mostly Cloudy
3:13 PM 8.6 °F 0.1 °F -2.2 °F 62% 30.29 in 10.0 mi Variable 4.6 mph - N/A   Scattered Clouds
3:53 PM 10.0 °F 1.8 °F -0.9 °F 61% 30.39 in 10.0 mi Variable 4.6 mph - N/A   Overcast
4:53 PM 6.1 °F - -2.0 °F 69% 30.40 in 10.0 mi Calm Calm - N/A   Clear
5:53 PM 1.0 °F - -5.1 °F 75% 30.41 in 10.0 mi Calm Calm - N/A   Clear
6:53 PM -2.9 °F - -9.0 °F 75% 30.43 in 10.0 mi Calm Calm - N/A   Clear
7:53 PM -6.0 °F - -11.0 °F 79% 30.43 in 10.0 mi Calm Calm - N/A   Clear
8:53 PM -7.1 °F - -13.0 °F 75% 30.42 in 10.0 mi Calm Calm - N/A   Clear
9:53 PM -8.0 °F - -14.1 °F 75% 30.41 in 10.0 mi Calm Calm - N/A   Clear
10:53 PM -9.0 °F - -15.0 °F 75% 30.39 in 10.0 mi Calm Calm - N/A   Clear
11:53 PM -6.0 °F - -11.0 °F 79% 30.38 in 10.0 mi Calm Calm - N/A   Partly Cloudy